カタログに戻る

DELTA 1 DEB

運用中LEO
NORAD 10627·DEBRIS·🇺🇸 United States

打ち上げ Jul 14, 1977 から Cape Canaveral Space Force Station

Loading…

次のパス (今後24時間)

TLE

最新Source: Space-Track

元期: Sep 14, 2026, 12:31 UTC

1 10627U 77065EW  26257.52158131  .00003374  00000-0  20077-2 0  9994
2 10627  28.9702   1.2767 0569611 135.4168 229.3667 13.46162931342308

AllMySatでDELTA 1 DEBをリアルタイム追跡

Download on the App Store